STARLINK-11674, 64327

Orbit data source: Space-Track

STARLINK-11674, 64327 is a payload satellite owned by SpaceX/Seattle (US) in LEO that was launched on Tue, 10 Jun 2025 UTC via an FALCON 9 launch vehicle from the Air Force Eastern Test Range (AFETR). Payload-class satellites include a variety of spacecraft equipped with specific instruments for various scientific and technological missions. These include communications satellites like Starlink; space stations such as the ISS; scientific satellites like the Hubble; Earth observation satellites from companies like Planet Labs, Umbra, and HawkEye 360; GPS; miniature CubeSats for education and research; and military/defense satellites.

Loading next visibility...
Identifier
64327, 2025-124L
Orbit
LEO
Country
Flag of USUS
Related business
Manufacturer
SpaceX/Seattle
Mission
Operational Commercial Communications
Bus & Motor
STARLINK V2M, Unknown motor
Mass
730 kg wet, ~700 kg dry
Launch date (UTC)
2025-06-10 (3 months ago)
Launch vehicle
FALCON 9
Launch site
Air Force Eastern Test Range (AFETR)
Object type
Payload
Rocket body
Debris
Shape & HBR
Box + 2 Pan, 14.5 m
Radar Cross Section
36.964 m², Large (>1 m²)

Expand to show TLE details & history
Last TLE update: 10 hours ago

TLE from 10 hours ago
0 STARLINK-11674
1 64327U 25124L   25242.72315265  .00241013  00000-0  18276-2 0  9999
2 64327  42.9985 100.0047 0002041 283.5402  76.5238 15.70842518 12807
Epoch: 2025-08-30T17:21Z
TLE epoch observation values (Epoch: 2025-08-30T17:21:20.388Z)
Latitude
-0.00005°
Longitude
-139.48366°
Altitude
355.939 km
Speed
7.698 km/s
True Right ascension
06h 40m 01s
True Declination
0° 00' 00"
Sunlit
Object was in daylight at epoch
Visualization orbit readout
Latitude
Unknown
Longitude
Unknown
Altitude
Unknown
Speed
Unknown
Apparent Right ascension
Unknown
Apparent Declination
Unknown
Sunlit
N/A
Visualization observer readout
Local Sidereal Time
19:07:29
Azimuth
Unknown
Elevation
Unknown
Doppler factor
Unknown
Orbital elements
Apogee altitude
359.845 km
Perigee altitude
357.095 km
Semi-major axis
6,736.607 km
Eccentricity
0.0002
Inclination
42.9985°
RAAN
100.0047°
Arg. of periapsis
283.5402°
True anomaly
76.54655°
Mean anomaly
76.5238°
Eccentric anomaly
76.53517°
Mean motion
3.92538 °/min
Orbital period
91.71 mins
BSTAR
0.0018276
Loading maneuver chart data...
Computing Atmospheric mass density...
Loading historical data...
Loading historical data...
Loading historical data...
Loading historical data...
Loading historical data...
Loading historical data...
Loading historical data...

Documentation

Showing up to 5 results
|